This is the latest recevied weather packets stored in our database for station/object 5B4APJ-13. If no packets are shown the sender has not sent any weather packets the latest 10 day(s).
| Time | Temp. | Humidity | Pressure | Rain* | Wind** | Luminosity | Snow |
|---|---|---|---|---|---|---|---|
| 1777977721 | 15.56° C | 58% | 1013.1 hPa | 0 mm | 0.89 m/s, 151° | 112 W/m² | - |
| 1777977422 | 15.56° C | 58% | 1012.7 hPa | 0 mm | 0.89 m/s, 244° | 145 W/m² | - |
| 1777977122 | 15.56° C | 58% | 1012.8 hPa | 0 mm | 2.24 m/s, 129° | 193 W/m² | - |
| 1777976822 | 15.56° C | 59% | 1012.7 hPa | 0 mm | 0.89 m/s, 162° | 230 W/m² | - |
| 1777976522 | 15.56° C | 58% | 1012.8 hPa | 0 mm | 1.79 m/s, 97° | 363 W/m² | - |
| 1777976222 | 15.56° C | 60% | 1012.9 hPa | 0 mm | 0.45 m/s, 146° | 263 W/m² | - |
| 1777975922 | 15° C | 61% | 1012.8 hPa | 0 mm | 0.89 m/s, 114° | 391 W/m² | - |
| 1777975622 | 14.44° C | 62% | 1012.8 hPa | 0 mm | 0.45 m/s, 148° | 174 W/m² | - |
| 1777975321 | 14.44° C | 64% | 1012.8 hPa | 0 mm | 0.89 m/s, 220° | 123 W/m² | - |
| 1777975022 | 14.44° C | 64% | 1012.7 hPa | 0 mm | 1.34 m/s, 107° | 128 W/m² | - |
| 1777974722 | 14.44° C | 63% | 1012.9 hPa | 0 mm | 1.34 m/s, 98° | 124 W/m² | - |
| 1777974422 | 14.44° C | 64% | 1012.9 hPa | 0 mm | 0.45 m/s, 107° | 188 W/m² | - |
| 1777974122 | 14.44° C | 64% | 1012.9 hPa | 0 mm | 1.34 m/s, 65° | 170 W/m² | - |
| 1777973822 | 14.44° C | 64% | 1012.9 hPa | 0 mm | 0.45 m/s, 255° | 138 W/m² | - |
| 1777973522 | 14.44° C | 64% | 1012.7 hPa | 0 mm | 0.89 m/s, 160° | 80 W/m² | - |
| 1777973222 | 14.44° C | 64% | 1012.8 hPa | 0 mm | 1.79 m/s, 169° | 68 W/m² | - |
| 1777972922 | 15.56° C | 60% | 1012.8 hPa | 0 mm | 2.68 m/s, 159° | 80 W/m² | - |
| 1777972622 | 16.11° C | 56% | 1012.7 hPa | 0 mm | 1.34 m/s, 252° | 105 W/m² | - |
| 1777972322 | 16.11° C | 48% | 1012.6 hPa | 0 mm | 0.45 m/s, 225° | 166 W/m² | - |
| 1777972022 | 16.11° C | 46% | 1012.7 hPa | 0 mm | 1.34 m/s, 270° | 336 W/m² | - |
| 1777971722 | 16.67° C | 45% | 1012.7 hPa | 0 mm | 2.24 m/s, 249° | 328 W/m² | - |
| 1777971422 | 15.56° C | 47% | 1012.7 hPa | 0 mm | 1.79 m/s, 279° | 279 W/m² | - |
| 1777971123 | 15.56° C | 46% | 1012.6 hPa | 0 mm | 0.89 m/s, 33° | 244 W/m² | - |
| 1777970822 | 16.11° C | 46% | 1012.6 hPa | 0 mm | 0.89 m/s, 291° | 239 W/m² | - |
| 1777970522 | 16.11° C | 45% | 1012.5 hPa | 0 mm | 0.89 m/s, 85° | 250 W/m² | - |
* Rain latest hour (hover to see other rain measurements)
** Current wind speed in m/s (hover to see current wind gust speed)